Content
SEND FEEDBACK

Daily
Averages
Monthly
Summary
United States of America

ST. LOUIS, MISSOURI


Home > North America > United States > Missouri
Elevation: 535 feet     Latitude: 38 45N     Longitude: 090 22W

WEATHER
 
SELECT A DAY
Number of Records: 201,291;   Date Range: 1/1/95 - 12/20/14
 
SHARE

PRINT THIS DATA

[ ← Previous Day ]
WEATHER ALMANAC - FEBRUARY 13, 2013
[ Next Day → ]
[ °C ]   °F
Weather ElementAverageHighLow
Temperature42.9 °F54 °F (2:54 pm)33.1 °F (6:54 am)
Dewpoint28.8 °F30.9 °F (8:54 pm)26.1 °F (1:54 pm)
Humidity60 %82 % (6:54 am)34 % (2:54 pm)
Barometer29.88 in29.95 in (1:54 am)29.82 in (2:54 pm)
Wind Speed7.8 mph17.3 mph (1:54 pm)
Wind Gust28.8 mph (12:54 pm)
Weather ElementAverage
Visibility10 mi
Wind DirectionSSW (215.2 °)

Weather ElementTotal
Precipitation---
Heating Degree Days21.5 (Base 65)
Averaged from 23 records on February 13, 2013
WEATHER CONDITIONS BREAKOUT
WIND DIRECTION BREAKOUT
WEATHER BY HOUR - FEBRUARY 13, 2013
[ °C ]   °F
Local TimeTemperatureDewpointHumidityBarometerVisibilityWind DirectionWind SpeedGust SpeedPrecipitationEventsConditions
1:54 AM36.0 °F28.9 °F76 %29.95 in10.0 miCalmOvercast
2:54 AM36.0 °F28.9 °F76 %29.93 in10.0 miWSW (250°)3.5 mphOvercast
3:54 AM37.0 °F28.0 °F70 %29.90 in10.0 miCalmOvercast
4:54 AM35.1 °F28.9 °F78 %29.89 in10.0 miWNW (300°)3.5 mphOvercast
5:54 AM35.1 °F28.9 °F78 %29.90 in10.0 miCalmClear
6:54 AM33.1 °F28.0 °F82 %29.91 in10.0 miWSW (250°)4.6 mphScattered Clouds
7:54 AM34.0 °F28.0 °F79 %29.92 in10.0 miSW (230°)5.8 mphClear
8:54 AM39.0 °F30.0 °F70 %29.91 in10.0 miWSW (250°)10.4 mphScattered Clouds
9:54 AM43.0 °F30.0 °F60 %29.90 in10.0 miWSW (240°)5.8 mphScattered Clouds
10:54 AM46.9 °F28.9 °F50 %29.89 in10.0 miWSW (250°)6.9 mphClear
11:54 AM50.0 °F28.9 °F44 %29.88 in10.0 miSW (230°)9.2 mphClear
12:54 PM52.0 °F27.0 °F38 %29.84 in10.0 miWest (270°)13.8 mph28.8 mphClear
1:54 PM53.1 °F26.1 °F35 %29.83 in10.0 miWSW (250°)17.3 mph24.2 mphPartly Cloudy
2:54 PM54.0 °F26.1 °F34 %29.82 in10.0 miWest (270°)8.1 mph16.1 mphClear
3:54 PM53.1 °F27.0 °F37 %29.83 in10.0 miWSW (250°)16.1 mph19.6 mphClear
4:54 PM51.1 °F28.0 °F41 %29.83 in10.0 miWSW (250°)12.7 mphClear
5:54 PM45.0 °F28.9 °F53 %29.85 in10.0 miWest (260°)6.9 mphScattered Clouds
6:54 PM39.9 °F28.0 °F63 %29.86 in10.0 miSW (230°)3.5 mphClear
7:54 PM44.1 °F30.0 °F58 %29.87 in10.0 miSW (230°)10.4 mphClear
8:54 PM43.0 °F30.9 °F62 %29.88 in10.0 miWSW (240°)9.2 mphClear
9:54 PM42.1 °F30.9 °F65 %29.88 in10.0 miWSW (240°)9.2 mphClear
10:54 PM41.0 °F30.9 °F67 %29.87 in10.0 miSW (230°)11.5 mphClear
11:54 PM42.1 °F30.9 °F65 %29.86 in10.0 miSW (230°)10.4 mphClear
Hourly data recorded from KSUS, located miles away from St. Louis, Missouri







STORIES FROM OUR PARTNERS